SM7GXQ Weather Reports


time (UTC)temp
F
wind
direction
speed
knots
gust
knots
rain 1hr
in
rain 24hr
in
rain mn
in
humidity
%
barometer
mb
20260906133004 69 280 0.9 4.3 0.00 0.08 0.01 68 1016.4
20260906123005 68 288 2.6 7.8 0.00 0.08 0.01 70 1016.2
20260906120005 68 298 0.9 4.3 0.00 0.08 0.01 71 1016.2
20260906114504 68 279 0.9 6.1 0.00 0.08 0.01 71 1016.1
20260906111505 67 280 4.3 7.0 0.00 0.08 0.01 70 1016.1
20260906104504 66 294 2.6 7.0 0.00 0.09 0.01 74 1015.9
20260906093004 63 246 0.0 5.2 0.00 0.11 0.01 80 1015.2
20260906091503 63 269 2.6 6.1 0.00 0.11 0.01 78 1015.2
20260906083005 61 279 2.6 7.8 0.00 0.11 0.01 82 1015.2
20260906081504 60 270 2.6 7.0 0.00 0.11 0.01 84 1014.8
20260906074504 59 266 2.6 5.2 0.00 0.11 0.01 85 1014.8
20260906073005 59 279 1.7 4.3 0.00 0.11 0.01 85 1014.4
20260906053004 55 277 2.6 6.1 0.00 0.11 0.01 91 1012.0
20260906051504 55 287 3.5 7.0 0.00 0.11 0.01 91 1012.0
20260906050004 55 287 3.5 7.0 0.00 0.11 0.01 91 1012.0
20260906044504 55 289 3.5 5.2 0.00 0.11 0.01 91 1012.0
20260906043004 54 286 1.7 5.2 0.00 0.11 0.01 92 1012.0
20260906034504 55 310 2.6 7.8 0.00 0.11 0.01 92 1011.1
20260906033006 55 300 2.6 7.8 0.00 0.11 0.01 92 1010.9
20260906024504 55 306 2.6 8.7 0.01 0.11 0.01 91 1010.2
20260906023005 55 334 2.6 7.8 0.01 0.11 0.01 91 1009.1
20260906021504 55 318 2.6 6.1 0.01 0.11 0.01 91 1009.1
20260906013005 55 300 3.5 7.8 0.00 0.10 0.00 91 1009.1
20260906001504 55 315 2.6 7.0 0.00 0.11 0.00 91 1007.8
20260905234504 56 320 3.5 7.0 0.00 0.11 0.00 90 1006.5
20260905221504 57 284 5.2 10.4 0.00 0.11 0.00 90 1005.3
20260905220004 57 281 4.3 7.0 0.00 0.11 0.00 90 1005.3
20260905214504 57 260 2.6 7.0 0.00 0.11 0.11 90 1005.3
20260905210004 57 223 3.5 8.7 0.00 0.11 0.11 88 1005.0
20260905204504 58 254 2.6 7.0 0.00 0.11 0.11 88 1004.9
20260905200004 58 219 1.7 10.4 0.00 0.11 0.11 87 1004.6
20260905184504 58 264 5.2 10.4 0.02 0.11 0.11 87 1004.6
20260905183004 58 276 2.6 8.7 0.02 0.11 0.11 86 1004.3
20260905181504 58 262 2.6 8.7 0.04 0.12 0.11 87 1004.3
20260905174504 58 266 3.5 10.4 0.06 0.10 0.09 84 1004.3
20260905173005 59 284 6.1 12.2 0.05 0.09 0.09 83 1004.3
20260905170004 62 287 6.1 10.4 0.01 0.09 0.05 79 1003.9
20260905163004 63 284 7.8 10.4 0.00 0.12 0.04 74 1002.9
20260905160005 64 286 5.2 10.4 0.00 0.14 0.04 75 1002.5
20260905151504 65 285 6.1 13.9 0.00 0.17 0.04 70 1002.1
20260905150004 64 274 6.1 13.0 0.00 0.20 0.04 73 1002.1
20260905144504 64 289 6.1 11.3 0.00 0.20 0.04 75 1002.1
20260905143004 64 283 5.2 13.0 0.00 0.22 0.04 72 1002.1